Weather observations for the past three days for
Waterville, Waterville Robert LaFleur Airport
Imperial (Metric)
Date Time (edt) Wind (mph) Vis. (mi.) Weather Sky Cond. Temperature (ºF) Relative Humidity Wind Chill (°F) Heat Index (°F) Pressure Precipitation (in)
Air Dwpt 6 hour altimeter (in) sea level (mb) 1 hr 3 hr 6 hr
Max. Min.
15 23:56 NW 7 10.00 Fair CLR 55 43 64% 30.09 1021.5
15 22:56 NW 7 10.00 Fair CLR 55.9 43 62% 30.08 1021.2
15 21:56 NW 7 10.00 Fair CLR 57 43 60% 30.07 1020.9
15 20:56 NW 5 10.00 Fair CLR 57 44.1 62% 30.04 1020.0
15 19:56 N 6 10.00 Fair CLR 61 43 69.1 61 52% 30.01 1019.0
15 18:56 N 10 10.00 Partly Cloudy SCT060 64 43 46% 30 1018.4
15 17:56 N 14 G 20 10.00 Mostly Cloudy BKN060 66 44.1 45% 29.97 1017.4
15 16:56 NW 14 G 20 10.00 Fair CLR 66.9 44.1 44% 29.95 1016.8
15 15:56 N 15 G 21 10.00 Overcast OVC060 66.9 46 47% 29.95 1016.5
15 14:56 N 13 G 20 10.00 Mostly Cloudy BKN060 66 48.9 54% 29.94 1016.3
15 13:56 N 12 G 18 10.00 Mostly Cloudy BKN050 69.1 48 69.1 61 47% 29.92 1015.7
15 12:56 NW 13 G 22 10.00 Mostly Cloudy BKN049 68 46.9 47% 29.92 1015.6
15 11:56 NW 16 G 21 10.00 Partly Cloudy SCT043 66.9 50 55% 29.91 1015.3
15 10:56 NW 14 G 20 10.00 A Few Clouds FEW033 66 51.1 59% 29.91 1015.3
15 09:56 N 16 G 21 10.00 Fair CLR 64.9 52 63% 29.9 1015.0
15 08:56 N 15 10.00 Fair CLR 62.1 53.1 73% 29.91 1015.3
15 07:56 N 12 10.00 Overcast OVC090 61 54 64 59 78% 29.9 1015.2
15 06:56 N 12 10.00 Overcast OVC085 59 53.1 81% 29.88 1014.6
15 05:56 N 9 10.00 Overcast OVC085 60.1 54 80% 29.87 1014.1
15 04:56 N 6 10.00 Overcast OVC090 61 57 87% 29.86 1013.5
15 03:56 N 8 10.00 Light Rain OVC095 62.1 57.9 86% 29.83 1012.8
15 02:56 N 8 10.00 Mostly Cloudy BKN100 63 57.9 84% 29.83 1012.6
15 01:56 N 10 10.00 Overcast OVC110 64 60.1 66.9 64 87% 29.82 1012.3 0.02
15 00:56 N 9 10.00 Overcast SCT095 OVC120 64.9 61 87% 29.84 1012.8
14 23:56 N 7 10.00 Light Rain FEW046 OVC100 66.9 66 97% 29.82 1012.3 0.01
14 22:56 W 6 10.00 Light Rain OVC075 66.9 66.9 100% 29.83 1012.6 0.01 0.01
14 21:56 SW 3 10.00 Overcast BKN075 OVC110 66.9 64.9 93% 29.81 1012.0
14 20:56 Vrbl 3 10.00 Mostly Cloudy BKN070 64.9 64 97% 29.79 1011.1
14 19:56 S 3 8.00 Partly Cloudy SCT070 64.9 64.9 79 64 100% 29.77 1010.6
14 18:56 Calm 6.00 Light Rain Fog/Mist OVC065 66 66 100% 29.77 1010.4 0.01
14 17:56 S 3 10.00 Light Rain FEW049 BKN080 BKN100 66 66 100% 29.75 1010.1 0.41
14 16:56 NW 18 G 39 2.00 Thunderstorm in Vicinity Heavy Rain Squalls NULL 70 59 68% 29.79 1011.1
14 15:56 NW 5 10.00 Overcast BKN035 BKN080 OVC110 73 63 71% 29.75 1009.7
14 14:56 SW 9 10.00 Mostly Cloudy BKN030 79 66.9 67% 81 29.74 1009.4
14 13:56 SW 9 10.00 Fair CLR 77 66.9 77 68 71% 79 29.75 1009.6
14 12:56 SW 13 10.00 Fair CLR 75 66 74% 76 29.77 1010.4
14 11:56 Vrbl 6 10.00 Overcast FEW065 OVC110 71.1 64.9 81% 29.78 1010.9
14 10:56 SW 6 10.00 Fair CLR 70 64 82% 29.79 1011.3
14 09:56 S 5 10.00 Partly Cloudy SCT100 69.1 63 81% 29.78 1010.8
14 08:56 SW 9 10.00 Partly Cloudy SCT090 68 62.1 81% 29.78 1010.9
14 07:56 SW 8 10.00 Fair CLR 68 62.1 68 61 81% 29.77 1010.4
14 06:56 SW 6 10.00 Fair CLR 64.9 61 87% 29.78 1010.8
14 05:56 S 6 10.00 Mostly Cloudy BKN110 62.1 61 96% 29.78 1010.7
14 04:56 SW 8 10.00 Fair CLR 62.1 60.1 93% 29.77 1010.5
14 03:56 S 7 10.00 Fair CLR 63 60.1 90% 29.77 1010.5
14 02:56 S 6 10.00 Fair CLR 61 60.1 97% 29.77 1010.6
14 01:56 SW 6 10.00 Fair CLR 61 60.1 69.1 61 97% 29.8 1011.6
14 00:56 S 5 10.00 Fair CLR 62.1 60.1 93% 29.82 1012.3
13 23:56 SW 7 10.00 Mostly Cloudy BKN120 62.1 59 90% 29.83 1012.7
13 22:56 S 6 10.00 Fair CLR 64 57.9 81% 29.85 1013.4
13 21:56 SW 5 10.00 Fair CLR 64.9 55.9 73% 29.87 1013.9
13 20:56 S 6 10.00 Fair CLR 66.9 55 66% 29.87 1014.0
13 19:56 S 5 10.00 Fair CLR 69.1 55 78.1 69.1 61% 29.89 1014.5
13 18:56 Vrbl 7 10.00 Fair CLR 73 61 66% 29.88 1014.2
13 17:56 S 9 G 17 10.00 A Few Clouds FEW048 75 60.1 60% 77 29.88 1014.2
13 16:56 SW 7 10.00 Overcast OVC049 75.9 59 56% 78 29.88 1014.2
13 15:56 Vrbl 7 10.00 Partly Cloudy SCT049 77 59 54% 79 29.88 1014.4
13 14:56 SW 8 10.00 Mostly Cloudy SCT049 BKN060 75.9 60.1 58% 78 29.9 1014.8
13 13:56 SW 6 10.00 Mostly Cloudy BKN055 75.9 59 75.9 62.1 56% 78 29.91 1015.2
13 12:56 S 6 10.00 Overcast OVC041 73.9 59 60% 29.93 1015.8
13 11:56 SW 6 10.00 Overcast BKN035 OVC044 72 59 64% 29.94 1016.4
13 10:56 Calm 10.00 Fair CLR 72 59 64% 29.96 1016.9
13 09:56 Vrbl 3 10.00 A Few Clouds FEW043 69.1 60.1 73% 29.96 1016.9
13 08:56 Calm 10.00 Mostly Cloudy BKN042 BKN055 64 63 96% 29.96 1017.2
13 07:56 SW 3 10.00 Partly Cloudy SCT040 62.1 62.1 63 57 100% 29.96 1017.3
13 06:56 Calm 2.50 Fog/Mist FEW001 59 59 100% 29.95 1016.9
13 05:56 NE 3 0.15 Fog OVC001 57 57 100% 29.95 1016.8
13 04:56 Calm 0.25 Fog OVC001 57 57 100% 29.93 1016.0
13 03:56 Calm 0.25 Fog OVC001 57.9 57.9 100% 29.92 1015.5
13 02:56 Calm 0.25 Fog OVC001 57.9 57.9 100% 29.92 1015.7
13 01:56 Calm 0.50 Fog BKN001 OVC095 57.9 57.9 63 57.9 100% 29.93 1016.0
13 00:56 Calm 4.00 Fog/Mist OVC100 60.1 60.1 100% 29.93 1016.2
Date Time (edt) Wind (mph) Vis. (mi.) Weather Sky Cond. Air Dwpt Max. Min. Relative Humidity Wind Chill (°F) Heat Index (°F) altimeter (in) sea level (mb) 1 hr 3 hr 6 hr
6 hour
Temperature (ºF) Pressure Precipitation (in)